QPF
0.06 0.06 0.05 0.04 0.04 0.03 0.03 0.03 0.03 0.03 0.03 0.02 0.03 0.04 0.03 0.03 0.04 0.04 0.03 0.02 0.02 0.02 0.02 0.03 0.03 0.04 0.04 0.04 0.04 0.04 0.04 0.03 0.05 0.06 0.07 0.06 0.04 0.03
0.08 0.08 0.08 0.07 0.06 0.04 0.04 0.04 0.03 0.03 0.03 0.02 0.02 0.02 0.02 0.03 0.04 0.04 0.04 0.04 0.03 0.03 0.03 0.02 0.03 0.03 0.04 0.04 0.04 0.03 0.03 0.03 0.03 0.04 0.05 0.05 0.05 0.04
0.06 0.07 0.07 0.08 0.08 0.07 0.06 0.05 0.05 0.04 0.03 0.02 0.02 0.02 0.02 0.03 0.04 0.05 0.05 0.05 0.04 0.04 0.03 0.03 0.03 0.03 0.03 0.03 0.04 0.04 0.03 0.03 0.04 0.03 0.04 0.04 0.04 0.04
0.04 0.05 0.06 0.07 0.08 0.08 0.07 0.06 0.05 0.04 0.04 0.03 0.02 0.02 0.02 0.02 0.03 0.03 0.04 0.05 0.06 0.06 0.05 0.04 0.03 0.03 0.03 0.03 0.03 0.03 0.03 0.03 0.03 0.03 0.03 0.03 0.03 0.03
0.02 0.02 0.03 0.04 0.04 0.05 0.06 0.06 0.05 0.05 0.05 0.04 0.03 0.02 0.02 0.02 0.02 0.03 0.03 0.03 0.04 0.05 0.06 0.05 0.04 0.03 0.03 0.03 0.03 0.02 0.02 0.02 0.02 0.03 0.03 0.02 0.02 0.02
0.02 0.02 0.02 0.02 0.03 0.04 0.04 0.04 0.05 0.05 0.05 0.04 0.03 0.02 0.02 0.02 0.02 0.03 0.03 0.04 0.04 0.04 0.05 0.05 0.05 0.04 0.03 0.03 0.04 0.03 0.02 0.02 0.02 0.02 0.02 0.02 0.02 0.02
0.03 0.02 0.02 0.03 0.03 0.04 0.04 0.05 0.05 0.05 0.05 0.05 0.04 0.03 0.02 0.02 0.02 0.03 0.03 0.03 0.04 0.05 0.06 0.06 0.06 0.05 0.04 0.03 0.03 0.03 0.03 0.02 0.02 0.02 0.02 0.02 0.02 0.02
0.02 0.02 0.02 0.03 0.03 0.03 0.04 0.05 0.06 0.06 0.06 0.05 0.04 0.03 0.03 0.02 0.02 0.02 0.03 0.03 0.04 0.04 0.05 0.06 0.06 0.06 0.04 0.03 0.03 0.02 0.02 0.03 0.02 0.02 0.02 0.01 0.01 0.01
0.03 0.02 0.02 0.02 0.02 0.02 0.03 0.04 0.04 0.05 0.05 0.06 0.05 0.03 0.03 0.02 0.02 0.02 0.02 0.02 0.02 0.03 0.04 0.06 0.06 0.06 0.04 0.03 0.03 0.03 0.02 0.03 0.03 0.02 0.02 0.02 0.02 0.01
0.03 0.03 0.02 0.02 0.02 0.02 0.02 0.03 0.03 0.03 0.03 0.03 0.03 0.02 0.02 0.02 0.02 0.02 0.02 0.02 0.02 0.02 0.04 0.06 0.06 0.07 0.05 0.04 0.04 0.03 0.03 0.03 0.03 0.03 0.03 0.03 0.02 0.02
0.03 0.02 0.02 0.02 0.02 0.03 0.03 0.03 0.03 0.03 0.03 0.03 0.03 0.02 0.02 0.02 0.03 0.03 0.03 0.03 0.03 0.04 0.04 0.05 0.06 0.06 0.07 0.06 0.05 0.05 0.04 0.03 0.03 0.03 0.03 0.03 0.03 0.02
0.03 0.02 0.02 0.02 0.03 0.03 0.04 0.04 0.03 0.03 0.03 0.03 0.03 0.02 0.02 0.02 0.03 0.04 0.04 0.04 0.04 0.04 0.03 0.03 0.04 0.05 0.08 0.08 0.07 0.06 0.06 0.05 0.04 0.04 0.03 0.03 0.03 0.03
0.03 0.02 0.02 0.02 0.03 0.03 0.03 0.04 0.03 0.03 0.04 0.04 0.03 0.02 0.02 0.01 0.02 0.03 0.04 0.04 0.04 0.04 0.03 0.03 0.04 0.04 0.05 0.07 0.07 0.07 0.06 0.06 0.06 0.05 0.05 0.03 0.03 0.03
0.03 0.03 0.03 0.03 0.04 0.04 0.04 0.04 0.04 0.05 0.05 0.05 0.04 0.03 0.02 0.02 0.02 0.02 0.03 0.04 0.04 0.03 0.03 0.04 0.05 0.04 0.04 0.04 0.05 0.06 0.06 0.05 0.05 0.05 0.05 0.04 0.03 0.03
0.02 0.02 0.03 0.04 0.05 0.05 0.04 0.05 0.05 0.05 0.05 0.05 0.05 0.03 0.02 0.01 0.01 0.02 0.03 0.03 0.04 0.03 0.03 0.03 0.04 0.04 0.04 0.04 0.04 0.04 0.05 0.05 0.05 0.04 0.04 0.04 0.03 0.02
0.03 0.03 0.03 0.04 0.04 0.04 0.04 0.05 0.04 0.04 0.04 0.04 0.03 0.03 0.03 0.03 0.02 0.02 0.03 0.03 0.04 0.04 0.03 0.03 0.03 0.03 0.04 0.05 0.04 0.04 0.04 0.05 0.05 0.04 0.04 0.04 0.03 0.02
0.04 0.04 0.05 0.05 0.05 0.04 0.04 0.04 0.04 0.04 0.04 0.03 0.03 0.03 0.03 0.04 0.03 0.03 0.03 0.03 0.04 0.03 0.03 0.03 0.04 0.04 0.04 0.04 0.05 0.05 0.05 0.04 0.04 0.04 0.05 0.05 0.04 0.03
0.04 0.04 0.04 0.04 0.05 0.04 0.04 0.04 0.04 0.04 0.03 0.03 0.03 0.03 0.03 0.04 0.04 0.04 0.03 0.03 0.03 0.03 0.02 0.02 0.03 0.05 0.05 0.06 0.05 0.05 0.05 0.06 0.06 0.05 0.05 0.05 0.05 0.03
0.04 0.04 0.03 0.03 0.03 0.03 0.04 0.04 0.04 0.03 0.03 0.03 0.03 0.03 0.03 0.03 0.03 0.04 0.04 0.04 0.03 0.03 0.02 0.02 0.03 0.03 0.05 0.05 0.06 0.05 0.04 0.05 0.06 0.06 0.06 0.05 0.04 0.03
0.04 0.04 0.03 0.03 0.03 0.03 0.03 0.03 0.03 0.03 0.04 0.04 0.03 0.03 0.03 0.03 0.03 0.03 0.04 0.04 0.03 0.03 0.03 0.03 0.03 0.03 0.03 0.03 0.03 0.03 0.03 0.04 0.05 0.05 0.06 0.05 0.04 0.04
0.03 0.03 0.03 0.04 0.03 0.03 0.03 0.03 0.03 0.02 0.03 0.03 0.03 0.03 0.03 0.03 0.03 0.03 0.03 0.03 0.04 0.03 0.03 0.03 0.03 0.03 0.03 0.03 0.04 0.04 0.05 0.05 0.05 0.05 0.04 0.04 0.05 0.05
0.02 0.02 0.03 0.03 0.03 0.03 0.03 0.03 0.03 0.02 0.02 0.02 0.03 0.03 0.03 0.03 0.03 0.03 0.03 0.03 0.03 0.03 0.03 0.03 0.03 0.04 0.05 0.05 0.05 0.05 0.06 0.06 0.06 0.06 0.05 0.04 0.04 0.04
0.02 0.02 0.02 0.03 0.03 0.03 0.03 0.03 0.03 0.03 0.03 0.03 0.03 0.03 0.03 0.03 0.03 0.03 0.03 0.03 0.03 0.03 0.03 0.04 0.05 0.06 0.06 0.05 0.05 0.05 0.05 0.05 0.05 0.05 0.05 0.04 0.03 0.03
MSLP
1032.48 1032.66 1032.88 1033.13 1033.38 1033.62 1033.82 1033.95 1033.99 1033.94 1033.77 1033.52 1033.17 1032.76 1032.30 1031.82 1031.33 1030.84 1030.37 1029.90 1029.44 1028.99 1028.54 1028.09 1027.63 1027.18 1026.72 1026.27 1025.83 1025.39 1024.97 1024.56 1024.19 1023.85 1023.55 1023.31 1023.13 1023.00
1032.22 1032.38 1032.59 1032.83 1033.08 1033.34 1033.56 1033.73 1033.82 1033.81 1033.70 1033.50 1033.21 1032.84 1032.43 1031.99 1031.53 1031.08 1030.64 1030.21 1029.80 1029.41 1029.03 1028.66 1028.30 1027.94 1027.58 1027.21 1026.84 1026.47 1026.09 1025.71 1025.34 1024.98 1024.65 1024.35 1024.10 1023.92
1031.86 1031.99 1032.17 1032.38 1032.62 1032.87 1033.11 1033.30 1033.43 1033.48 1033.44 1033.31 1033.10 1032.81 1032.47 1032.09 1031.69 1031.29 1030.90 1030.52 1030.16 1029.81 1029.48 1029.16 1028.85 1028.55 1028.25 1027.95 1027.64 1027.32 1026.99 1026.65 1026.30 1025.96 1025.62 1025.31 1025.05 1024.83
1031.45 1031.55 1031.68 1031.87 1032.08 1032.31 1032.55 1032.76 1032.92 1033.03 1033.06 1033.02 1032.89 1032.69 1032.44 1032.15 1031.83 1031.50 1031.16 1030.83 1030.51 1030.20 1029.90 1029.61 1029.33 1029.05 1028.78 1028.51 1028.24 1027.96 1027.68 1027.38 1027.08 1026.78 1026.48 1026.20 1025.96 1025.76
1031.03 1031.09 1031.20 1031.34 1031.53 1031.74 1031.97 1032.19 1032.39 1032.54 1032.63 1032.66 1032.62 1032.51 1032.35 1032.15 1031.92 1031.66 1031.40 1031.13 1030.86 1030.58 1030.31 1030.04 1029.77 1029.50 1029.23 1028.98 1028.72 1028.47 1028.22 1027.97 1027.72 1027.47 1027.24 1027.02 1026.84 1026.69
1030.59 1030.64 1030.72 1030.85 1031.01 1031.21 1031.43 1031.65 1031.87 1032.05 1032.19 1032.27 1032.30 1032.28 1032.20 1032.09 1031.94 1031.77 1031.58 1031.38 1031.17 1030.94 1030.70 1030.45 1030.19 1029.93 1029.66 1029.40 1029.15 1028.91 1028.68 1028.47 1028.27 1028.08 1027.92 1027.78 1027.66 1027.57
1030.13 1030.18 1030.26 1030.37 1030.52 1030.71 1030.92 1031.14 1031.36 1031.56 1031.73 1031.85 1031.93 1031.97 1031.96 1031.92 1031.86 1031.77 1031.67 1031.55 1031.41 1031.25 1031.06 1030.85 1030.61 1030.36 1030.09 1029.83 1029.57 1029.34 1029.12 1028.93 1028.77 1028.64 1028.54 1028.46 1028.41 1028.38
1029.60 1029.67 1029.75 1029.87 1030.02 1030.21 1030.41 1030.64 1030.85 1031.06 1031.23 1031.37 1031.48 1031.56 1031.60 1031.63 1031.64 1031.64 1031.63 1031.60 1031.55 1031.47 1031.35 1031.20 1031.01 1030.79 1030.54 1030.28 1030.03 1029.79 1029.58 1029.41 1029.27 1029.16 1029.10 1029.06 1029.06 1029.07
1028.97 1029.05 1029.16 1029.29 1029.45 1029.64 1029.84 1030.06 1030.28 1030.47 1030.65 1030.80 1030.92 1031.02 1031.10 1031.18 1031.26 1031.34 1031.42 1031.50 1031.55 1031.57 1031.55 1031.48 1031.35 1031.19 1030.98 1030.74 1030.50 1030.27 1030.07 1029.89 1029.76 1029.67 1029.61 1029.59 1029.60 1029.64
1028.20 1028.30 1028.42 1028.57 1028.75 1028.95 1029.16 1029.38 1029.59 1029.78 1029.95 1030.10 1030.24 1030.35 1030.47 1030.60 1030.74 1030.90 1031.07 1031.24 1031.40 1031.53 1031.61 1031.64 1031.61 1031.51 1031.36 1031.17 1030.96 1030.75 1030.55 1030.38 1030.24 1030.15 1030.09 1030.06 1030.06 1030.08
1027.29 1027.40 1027.55 1027.71 1027.90 1028.11 1028.33 1028.56 1028.77 1028.97 1029.15 1029.31 1029.45 1029.60 1029.75 1029.92 1030.12 1030.35 1030.60 1030.87 1031.12 1031.35 1031.54 1031.67 1031.73 1031.72 1031.65 1031.52 1031.36 1031.19 1031.01 1030.85 1030.71 1030.61 1030.54 1030.49 1030.47 1030.46
1026.27 1026.39 1026.55 1026.73 1026.93 1027.16 1027.39 1027.63 1027.86 1028.07 1028.27 1028.45 1028.63 1028.80 1029.00 1029.22 1029.47 1029.77 1030.09 1030.42 1030.76 1031.08 1031.35 1031.57 1031.72 1031.80 1031.81 1031.76 1031.66 1031.54 1031.40 1031.27 1031.15 1031.05 1030.96 1030.90 1030.85 1030.81
1025.20 1025.33 1025.49 1025.68 1025.90 1026.14 1026.39 1026.65 1026.90 1027.15 1027.38 1027.60 1027.82 1028.05 1028.29 1028.57 1028.88 1029.22 1029.59 1029.98 1030.37 1030.75 1031.09 1031.37 1031.59 1031.75 1031.83 1031.86 1031.84 1031.78 1031.70 1031.62 1031.53 1031.44 1031.36 1031.29 1031.22 1031.15
1024.14 1024.27 1024.43 1024.63 1024.86 1025.11 1025.39 1025.67 1025.96 1026.25 1026.53 1026.81 1027.09 1027.38 1027.69 1028.02 1028.38 1028.76 1029.17 1029.59 1030.01 1030.41 1030.77 1031.10 1031.36 1031.57 1031.73 1031.83 1031.88 1031.90 1031.89 1031.86 1031.82 1031.77 1031.71 1031.63 1031.55 1031.46
1023.13 1023.26 1023.42 1023.63 1023.86 1024.13 1024.43 1024.74 1025.07 1025.41 1025.76 1026.10 1026.46 1026.82 1027.20 1027.59 1028.00 1028.42 1028.84 1029.27 1029.69 1030.08 1030.45 1030.78 1031.07 1031.31 1031.51 1031.67 1031.79 1031.88 1031.94 1031.98 1031.99 1031.98 1031.95 1031.89 1031.81 1031.70
1022.20 1022.33 1022.49 1022.69 1022.94 1023.22 1023.53 1023.88 1024.25 1024.64 1025.05 1025.47 1025.90 1026.34 1026.79 1027.24 1027.69 1028.14 1028.58 1029.00 1029.41 1029.79 1030.13 1030.45 1030.74 1030.99 1031.22 1031.42 1031.59 1031.74 1031.87 1031.96 1032.02 1032.04 1032.04 1031.99 1031.91 1031.80
1021.34 1021.46 1021.62 1021.82 1022.06 1022.35 1022.67 1023.04 1023.45 1023.88 1024.35 1024.84 1025.35 1025.87 1026.39 1026.90 1027.40 1027.87 1028.32 1028.74 1029.13 1029.48 1029.81 1030.11 1030.38 1030.64 1030.88 1031.11 1031.32 1031.51 1031.67 1031.80 1031.89 1031.94 1031.94 1031.89 1031.80 1031.67
1020.50 1020.61 1020.77 1020.96 1021.20 1021.48 1021.81 1022.19 1022.62 1023.09 1023.60 1024.15 1024.72 1025.30 1025.88 1026.46 1027.00 1027.51 1027.98 1028.41 1028.79 1029.14 1029.45 1029.74 1030.01 1030.27 1030.52 1030.76 1030.99 1031.20 1031.38 1031.52 1031.62 1031.66 1031.65 1031.58 1031.46 1031.30
1019.66 1019.76 1019.90 1020.08 1020.31 1020.58 1020.90 1021.28 1021.71 1022.20 1022.74 1023.33 1023.94 1024.58 1025.21 1025.83 1026.43 1026.98 1027.49 1027.94 1028.34 1028.70 1029.03 1029.33 1029.61 1029.88 1030.15 1030.40 1030.64 1030.86 1031.04 1031.17 1031.25 1031.26 1031.21 1031.10 1030.93 1030.73
1018.80 1018.89 1019.01 1019.18 1019.38 1019.63 1019.93 1020.29 1020.72 1021.20 1021.75 1022.35 1022.99 1023.65 1024.33 1024.99 1025.64 1026.24 1026.79 1027.29 1027.74 1028.15 1028.51 1028.85 1029.17 1029.48 1029.78 1030.05 1030.31 1030.52 1030.69 1030.80 1030.83 1030.80 1030.70 1030.52 1030.31 1030.05
1017.94 1018.01 1018.11 1018.25 1018.43 1018.66 1018.93 1019.26 1019.66 1020.12 1020.65 1021.24 1021.88 1022.56 1023.25 1023.95 1024.63 1025.28 1025.89 1026.46 1026.97 1027.45 1027.89 1028.30 1028.68 1029.05 1029.39 1029.71 1029.98 1030.20 1030.36 1030.44 1030.44 1030.36 1030.19 1029.96 1029.69 1029.38
1017.12 1017.17 1017.26 1017.37 1017.52 1017.72 1017.96 1018.25 1018.60 1019.03 1019.52 1020.08 1020.69 1021.36 1022.05 1022.76 1023.47 1024.17 1024.83 1025.47 1026.06 1026.62 1027.15 1027.65 1028.12 1028.56 1028.97 1029.34 1029.65 1029.89 1030.05 1030.12 1030.09 1029.97 1029.77 1029.49 1029.17 1028.82
1016.40 1016.43 1016.49 1016.58 1016.71 1016.87 1017.07 1017.32 1017.63 1018.00 1018.44 1018.95 1019.52 1020.15 1020.82 1021.53 1022.24 1022.97 1023.68 1024.37 1025.04 1025.69 1026.31 1026.90 1027.46 1027.99 1028.48 1028.91 1029.27 1029.55 1029.73 1029.81 1029.78 1029.65 1029.43 1029.14 1028.80 1028.44
Thickness
5446 5447 5447 5448 5449 5451 5451 5452 5452 5454 5460 5464 5466 5470 5470 5472 5474 5476 5479 5482 5484 5487 5489 5492 5494 5496 5498 5501 5503 5504 5505 5506 5507 5508 5509 5509 5510 5511
5433 5433 5434 5434 5435 5436 5437 5438 5440 5442 5445 5451 5452 5454 5456 5457 5459 5462 5465 5468 5471 5474 5476 5479 5481 5483 5485 5487 5489 5491 5492 5493 5494 5496 5496 5497 5498 5499
5420 5420 5421 5421 5421 5422 5423 5425 5426 5427 5430 5436 5438 5440 5441 5443 5445 5448 5451 5454 5457 5460 5462 5465 5467 5469 5471 5473 5475 5477 5479 5480 5482 5483 5484 5485 5485 5487
5406 5407 5407 5408 5408 5408 5409 5411 5413 5414 5415 5419 5423 5425 5427 5429 5431 5434 5437 5439 5442 5446 5448 5451 5453 5456 5458 5460 5462 5464 5466 5467 5469 5470 5472 5473 5473 5473
5394 5394 5394 5394 5395 5395 5396 5398 5399 5402 5402 5404 5409 5411 5413 5415 5417 5420 5422 5425 5428 5431 5434 5437 5440 5442 5445 5447 5449 5451 5453 5456 5457 5458 5457 5458 5459 5460
5381 5381 5381 5381 5382 5383 5383 5384 5386 5388 5389 5390 5394 5397 5398 5400 5402 5405 5408 5410 5414 5417 5420 5423 5426 5428 5432 5434 5437 5439 5440 5442 5443 5444 5444 5445 5446 5447
5367 5367 5368 5368 5369 5370 5372 5373 5373 5374 5375 5377 5379 5382 5384 5386 5388 5391 5393 5396 5399 5402 5405 5409 5412 5415 5417 5420 5423 5425 5427 5429 5430 5431 5432 5432 5432 5433
5352 5353 5354 5354 5356 5357 5359 5360 5361 5361 5363 5363 5366 5369 5373 5374 5376 5377 5379 5381 5385 5390 5390 5395 5397 5400 5404 5406 5409 5412 5414 5415 5416 5417 5419 5419 5419 5420
5338 5338 5339 5340 5341 5343 5344 5346 5348 5349 5352 5353 5354 5358 5360 5362 5363 5364 5365 5367 5372 5375 5375 5380 5383 5386 5390 5393 5395 5398 5400 5402 5403 5403 5405 5406 5406 5407
5325 5325 5325 5327 5327 5329 5330 5332 5334 5336 5338 5340 5343 5347 5348 5348 5349 5351 5353 5354 5357 5359 5361 5364 5369 5372 5376 5379 5381 5384 5386 5387 5389 5389 5390 5392 5392 5393
5311 5311 5311 5313 5315 5316 5317 5319 5321 5323 5324 5326 5329 5331 5334 5335 5335 5336 5337 5338 5342 5345 5347 5349 5355 5357 5361 5365 5367 5370 5371 5373 5374 5376 5377 5378 5379 5380
5298 5298 5299 5300 5302 5302 5303 5304 5307 5310 5311 5313 5316 5318 5320 5321 5323 5324 5325 5325 5328 5331 5334 5335 5339 5341 5346 5352 5354 5355 5356 5358 5360 5362 5363 5364 5365 5366
5284 5284 5285 5287 5289 5291 5291 5292 5294 5296 5297 5299 5301 5304 5306 5308 5310 5311 5312 5314 5315 5318 5322 5322 5324 5326 5329 5335 5339 5341 5342 5344 5345 5347 5349 5351 5352 5352
5270 5270 5272 5274 5276 5278 5278 5280 5281 5282 5283 5285 5287 5290 5293 5295 5297 5299 5300 5301 5303 5305 5307 5308 5311 5313 5315 5318 5323 5327 5328 5329 5331 5333 5335 5337 5338 5339
5256 5257 5259 5260 5262 5264 5265 5267 5268 5268 5270 5271 5275 5277 5280 5282 5284 5285 5286 5287 5289 5292 5294 5296 5298 5300 5302 5305 5309 5311 5313 5315 5317 5319 5321 5322 5324 5325
5243 5244 5245 5246 5247 5249 5250 5252 5253 5255 5257 5259 5261 5263 5266 5268 5270 5271 5272 5273 5275 5278 5280 5282 5284 5286 5288 5291 5294 5297 5299 5301 5304 5305 5306 5308 5309 5311
5228 5229 5230 5231 5232 5234 5235 5236 5238 5241 5243 5245 5247 5249 5252 5255 5257 5259 5259 5260 5262 5265 5267 5268 5270 5271 5274 5276 5279 5283 5285 5287 5290 5291 5292 5294 5296 5298
5213 5213 5215 5216 5217 5219 5220 5222 5224 5227 5229 5231 5233 5236 5239 5242 5245 5246 5247 5249 5251 5253 5254 5255 5255 5255 5257 5261 5266 5269 5271 5273 5275 5276 5278 5280 5284 5286
5198 5198 5199 5200 5201 5203 5205 5207 5210 5212 5215 5217 5220 5223 5225 5228 5231 5234 5235 5237 5239 5240 5241 5241 5242 5242 5243 5249 5253 5255 5257 5259 5260 5262 5264 5266 5271 5274
5184 5184 5184 5186 5187 5189 5191 5193 5195 5198 5201 5204 5206 5209 5212 5215 5218 5221 5223 5225 5226 5227 5228 5229 5230 5232 5234 5237 5239 5242 5244 5245 5246 5248 5250 5252 5256 5259
5170 5170 5171 5172 5173 5175 5177 5179 5181 5184 5187 5190 5193 5196 5198 5202 5205 5209 5211 5213 5215 5215 5217 5219 5220 5221 5221 5222 5224 5228 5230 5232 5234 5236 5237 5239 5242 5245
5155 5156 5157 5158 5160 5162 5163 5165 5168 5171 5174 5177 5180 5183 5186 5189 5193 5196 5199 5200 5203 5204 5206 5207 5207 5208 5209 5211 5213 5216 5218 5220 5221 5223 5226 5230 5231 5235
5142 5143 5144 5146 5147 5149 5151 5153 5155 5158 5162 5165 5168 5171 5174 5177 5180 5184 5186 5188 5189 5191 5192 5193 5195 5196 5197 5199 5200 5203 5206 5208 5210 5212 5216 5219 5222 5227